Location: Bakhuizen
(52.8696°N, 5.4575°E)
Time: 03:05:02
(UTC+00:00)

Cosmos 773 Rocket - Pass Details

Date: 04 October 2021
Orbit: 745 x 777 km, 74.1° (Epoch: 26 October)

Event Time Altitude Azimuth Distance (km) Brightness Sun altitude
Rises 17:54:15 0° 326° (NNW) 3,256 7.8 -7.8°
Reaches altitude 10° 17:57:00 10° 313° (NW) 2,329 7.3 -8.3°
Maximum altitude 18:01:10 24° 261° (W) 1,561 6.7 -8.9°
Drops below altitude 10° 18:05:20 10° 209° (SSW) 2,324 6.8 -9.5°
Sets 18:08:06 0° 196° (SSW) 3,248 7.4 -9.9°
